{"data":{"norad_id":25019,"epoch":"2026-05-24T07:28:01.220736Z","epoch_age_seconds":124662,"freshness":"FRESH","line1":"1 25019U 97065A   26144.31112524 -.00000072  00000+0  00000+0 0  9998","line2":"2 25019  12.7575  21.9057 0004786 334.9657 244.8972  1.00272569 32713","mean_motion":1.00272569,"eccentricity":0.0004786,"inclination_deg":12.7575,"raan_deg":21.9057,"arg_perigee_deg":334.9657,"mean_anomaly_deg":244.8972,"bstar":0,"rev_number":3271,"period_min":1436.0856756348,"perigee_km":35766.195243434,"apogee_km":35806.555114492,"semimajor_km":42164.512178963,"source":"CELESTRAK","updated_at":"2026-05-25T13:38:13.808014Z"}}